Kiripotib Landing Site

Jump to: basic info | weather | comments

Related pages: nearby airports | nearby navaids

Basic information (top)

Location: lon -23.328300, lat 17.946400, elev 4,475 ft / 1,364 m msl
Status: small_airport

Weather (top)

Current conditions for Hosea Kutako International Airport 57nm (106km) NNW (rec'd 2014/04/24 18:00Z):

FYWH 241800Z 00000KT CAVOK 13/07 Q1020

Airport forecast for Hosea Kutako International Airport 57nm (106km) NNW (rec'd 2014/04/21 06:33Z):

TAF FYWH 210400Z 2106/2212 24005KT CAVOK 
      BECMG 2110/2111 01007KT 9999 SCT040 
      BECMG 2112/2113 FEW035CB 
      BECMG 2117/2119 26005KT CAVOK

Latest comments (top)

More details: Once can also land in the nearby salt ... [read]

Kiripotib Landing Strip Details: GPS location: S 23° 19' 50'' E 17° ... [read]

More... (top)

See also NOTAMs and nearby airports and navaids, or visit the Kiripotib Landing Site page at the main OurAirports website..